Location: Berg
(47.2344°N, 9.5296°E)
Time: 12:50:04
(UTC+00:00)

Nauka - Pass Details

Date: 25 September 2021
Orbit: 418 x 423 km, 51.6° (Epoch: 18 October)

Event Time Altitude Azimuth Distance (km) Brightness Sun altitude
Rises 18:05:46 0° 274° (W) 2,362 ? -9.7°
Reaches altitude 10° 18:07:56 10° 282° (WNW) 1,500 ? -10.1°
Maximum altitude 18:11:08 39° 353° (N) 646 ? -10.6°
Enters shadow 18:14:01 12° 62° (ENE) 1,387 ? -11.1°
